Simultaneous Nadir Overpasses (SNOs) Predictions

Prediction of SNOs between GOES-16 and METOP-B Satellite Orbit:

Table of predicted SNOs for the next 14.0 days since TLE Epoch: 4/17/2021
Index Date Time (GOES-16) GOES-16 Lat,Lon METOP-B Lat,Lon Distance(km) Time Diff (sec)
1 04/18/2021 02:49:24 -0.05, -75.19 -0.99, -79.35 475.07 80
2 04/19/2021 02:26:05 -0.05, -75.18 0.15, -74.36 93.64 80
3 04/20/2021 14:44:55 0.05, -75.19 0.89, -78.92 424.84 80
4 04/21/2021 14:26:56 0.04, -75.19 -0.25, -73.93 144.38 80
5 04/23/2021 02:45:55 -0.04, -75.18 -0.77, -78.52 380.57 80
6 04/24/2021 02:22:35 -0.04, -75.18 0.31, -73.52 188.88 80
7 04/25/2021 14:41:26 0.04, -75.20 0.66, -78.09 328.55 80
8 04/26/2021 14:23:25 0.04, -75.21 -0.42, -73.09 241.39 80
9 04/28/2021 02:42:25 -0.04, -75.20 -0.61, -77.68 282.65 80
10 04/29/2021 02:19:05 -0.04, -75.21 0.54, -72.69 287.14 80
11 04/30/2021 14:37:56 0.03, -75.23 0.49, -77.25 230.08 80
